TimeEDT,TemperatureF,Dew PointF,Humidity,Sea Level PressureIn,VisibilityMPH,Wind Direction,Wind SpeedMPH,Gust SpeedMPH,PrecipitationIn,Events,Conditions,WindDirDegrees,DateUTC
12:15 AM,44.6,42.8,93,30.04,5.0,Calm,Calm,-,N/A,,Clear,0,2013-04-06 04:15:00
12:35 AM,44.6,44.6,100,30.04,7.0,Calm,Calm,-,N/A,,Clear,0,2013-04-06 04:35:00
12:55 AM,42.8,42.8,100,30.04,2.5,Calm,Calm,-,N/A,,Clear,0,2013-04-06 04:55:00
1:15 AM,44.6,41.0,87,30.04,9.0,Calm,Calm,-,N/A,,Clear,0,2013-04-06 05:15:00
1:35 AM,44.6,44.6,100,30.04,10.0,North,3.5,-,N/A,,Clear,360,2013-04-06 05:35:00
1:55 AM,44.6,42.8,93,30.04,9.0,Calm,Calm,-,N/A,,Clear,0,2013-04-06 05:55:00
2:15 AM,44.6,42.8,93,30.04,10.0,Calm,Calm,-,N/A,,Clear,0,2013-04-06 06:15:00
2:35 AM,44.6,42.8,93,30.05,10.0,Calm,Calm,-,N/A,,Clear,0,2013-04-06 06:35:00
2:55 AM,44.6,42.8,93,30.05,10.0,Calm,Calm,-,N/A,,Clear,0,2013-04-06 06:55:00
3:15 AM,42.8,41.0,93,30.05,9.0,Calm,Calm,-,N/A,,Clear,0,2013-04-06 07:15:00
3:35 AM,44.6,42.8,93,30.06,2.5,Calm,Calm,-,N/A,,Clear,0,2013-04-06 07:35:00
3:55 AM,42.8,41.0,93,30.06,6.0,Calm,Calm,-,N/A,,Clear,0,2013-04-06 07:55:00
4:15 AM,42.8,42.8,100,30.06,10.0,Calm,Calm,-,N/A,,Clear,0,2013-04-06 08:15:00
4:35 AM,42.8,39.2,87,30.06,10.0,Calm,Calm,-,N/A,,Clear,0,2013-04-06 08:35:00
4:55 AM,42.8,41.0,93,30.07,8.0,Calm,Calm,-,N/A,,Clear,0,2013-04-06 08:55:00
5:15 AM,42.8,39.2,87,30.07,0.5,Calm,Calm,-,N/A,,Unknown,0,2013-04-06 09:15:00
5:35 AM,42.8,41.0,93,30.08,1.0,Calm,Calm,-,N/A,,Clear,0,2013-04-06 09:35:00
5:50 AM,42.8,41.0,93,30.08,10.0,NNW,5.8,-,N/A,Fog,Shallow Fog,330,2013-04-06 09:50:00
5:55 AM,42.8,41.0,93,30.08,1.0,Calm,Calm,-,N/A,,Clear,0,2013-04-06 09:55:00
6:50 AM,42.8,39.2,87,30.10,10.0,WNW,5.8,-,N/A,,Clear,300,2013-04-06 10:50:00
7:50 AM,44.6,42.8,93,30.13,10.0,NW,4.6,-,N/A,,Clear,320,2013-04-06 11:50:00
9:50 AM,57.2,46.4,67,30.17,10.0,NNE,10.4,-,N/A,,Clear,20,2013-04-06 13:50:00
11:45 AM,60.8,48.2,63,30.22,10.0,East,13.8,-,N/A,,Clear,90,2013-04-06 15:45:00
12:45 PM,62.6,50.0,63,30.22,10.0,ESE,17.3,-,N/A,,Partly Cloudy,110,2013-04-06 16:45:00
1:45 PM,62.6,44.6,52,30.22,10.0,East,17.3,-,N/A,,Partly Cloudy,90,2013-04-06 17:45:00
2:45 PM,60.8,39.2,45,30.22,10.0,ESE,17.3,25.3,N/A,,Clear,110,2013-04-06 18:45:00
3:45 PM,60.8,42.8,52,30.21,10.0,ESE,15.0,20.7,N/A,,Clear,110,2013-04-06 19:45:00
4:45 PM,60.8,44.6,55,30.20,10.0,ESE,17.3,23.0,N/A,,Clear,120,2013-04-06 20:45:00
5:45 PM,57.2,44.6,63,30.21,10.0,ESE,16.1,-,N/A,,Clear,110,2013-04-06 21:45:00
6:50 PM,55.4,46.4,72,30.22,10.0,ESE,12.7,-,N/A,,Clear,110,2013-04-06 22:50:00
7:50 PM,53.6,44.6,72,30.24,10.0,ESE,11.5,-,N/A,,Clear,110,2013-04-06 23:50:00
8:45 PM,53.6,46.4,77,30.25,10.0,East,15.0,-,N/A,,Clear,90,2013-04-07 00:45:00
9:45 PM,53.6,46.4,77,30.27,10.0,East,12.7,-,N/A,,Clear,100,2013-04-07 01:45:00
10:55 PM,53.6,46.4,77,30.28,10.0,East,11.5,-,N/A,,Clear,90,2013-04-07 02:55:00
11:15 PM,51.8,46.4,82,30.28,10.0,East,9.2,-,N/A,,Clear,90,2013-04-07 03:15:00
11:35 PM,51.8,48.2,88,30.27,10.0,East,10.4,18.4,N/A,,Clear,90,2013-04-07 03:35:00
11:55 PM,51.8,48.2,88,30.27,10.0,East,12.7,-,N/A,,Clear,90,2013-04-07 03:55:00